Regional Weather Roundup
Issued by NWS Sterling, VA

Home | Current Version | Previous Version | Graphics & Text | Print | Product List | Glossary On
Versions: 1 2 3 4 5 6 7 8 9 10 11 12 13 14 15 16 17 18 19 20 21 22 23 24 25 26 27 28 29 30 31 32 33 34 35 36 37 38 39 40 41 42 43 44 45 46 47 48 49 50
110
ASUS41 KLWX 231910
RWRLWX

REGIONAL WEATHER ROUNDUP
NATIONAL WEATHER SERVICE BALTIMORE MD/WASHINGTON DC
300 PM EDT MON MAY 23 2016

Note: "FAIR" indicates few or no clouds below 12,000 feet
with no significant weather and/or obstructions to visibility.
 TC=TEMPERATURE CELSIUS

 * =Non NWS site. Station does not report precipitation (e.g. rain,
    snow, etc.), thunder, or fog.

DCZ001-MDZ009-015-VAZ040>042-051-053>054-232000-
WASHINGTON METRO

CITY           SKY/WX    TMP DP  RH WIND       PRES   REMARKS
WASHINGTON NAT PTSUNNY   74  56  53 NW12      29.91F
DULLES         PTSUNNY   73  53  49 N10       29.93F
ANDREWS AFB    CLOUDY    71  55  57 N9        29.91F THUNDER
FT BELVOIR     FAIR      70  57  62 W7        29.92F
QUANTICO       PTSUNNY   68  54  60 NW7       29.93F
COLLEGE PARK*  PTSUNNY   66  54  63 N12       29.93R
LEESBURG*      FAIR      73  59  60 NW8G21    29.94F
MANASSAS*      CLOUDY    66  61  82 SE5       29.94F

$$

MDZ006>007-011-014-232000-
BALTIMORE METRO

CITY           SKY/WX    TMP DP  RH WIND       PRES   REMARKS
BWI AIRPORT    PTSUNNY   72  53  51 NE8       29.90F THUNDER
MD SCIENCE CTR   N/A     70  52  52 MISG      29.91F
MARTIN STATE   PTSUNNY   72  63  73 SE5       29.91F
ANNAPOLIS      PTSUNNY   67  59  75 SE8       29.90F
FORT MEADE*    PTSUNNY   64  54  68 CALM      29.93F

$$

MDZ012-015-019>023-232000-
MARYLAND EASTERN SHORE

CITY           SKY/WX    TMP DP  RH WIND       PRES   REMARKS
OCEAN CITY     PTSUNNY   62  50  64 N13       29.91F
SALISBURY      CLOUDY    68  51  54 N9        29.90F
BAY BRIDGE AP* PTSUNNY   70  55  60 W5        29.90F
CAMBRIDGE*     MOSUNNY   68  55  64 NW6       29.91F
EASTON*        CLOUDY    70  63  78 W5        29.94F

$$

MDZ017>025-232000-
SOUTHERN MARYLAND

CITY           SKY/WX    TMP DP  RH WIND       PRES   REMARKS
PATUXENT RIVER PTSUNNY   67  55  65 CALM      29.92F
ST INIGOES     CLOUDY    66  57  72 W3        29.92F
LEONARDTOWN*   CLOUDY    68  55  64 CALM      29.93F

$$

MDZ003>005-232000-
NORTH CENTRAL MARYLAND

CITY           SKY/WX    TMP DP  RH WIND       PRES   REMARKS
FREDERICK*     SUNNY     75  54  46 N6        29.95F
HAGERSTOWN APT MOSUNNY   74  50  42 VRB7      29.94F
WESTMINSTER*   MOSUNNY   75  63  64 CALM      29.93F

$$

MDZ501>502-232000-
WESTERN MARYLAND

CITY           SKY/WX    TMP DP  RH WIND       PRES   REMARKS
OAKLAND*       CLOUDY    55  46  71 NW7       30.04F
CUMBERLAND*    CLOUDY    75  46  35 NE6       30.00F

$$

VAZ025>031-232000-
SHENANDOAH VALLEY

CITY           SKY/WX    TMP DP  RH WIND       PRES   REMARKS
WINCHESTER*    FAIR      72  52  49 N3        29.96F
FRONT ROYAL*   FAIR      70  55  60 N3        29.95F
LURAY*         FAIR      70  57  64 E3        29.97S
NEW MARKET*    FAIR      71  53  52 NE5       29.95F
STAUNTON*        N/A    N/A N/A N/A MISG        N/A
WAYNESBORO*    CLOUDY    63  54  71 CALM      30.00R

$$

WVZ021-048>050-054>055-232000-
EASTERN WEST VIRGINIA PANHANDLE

CITY           SKY/WX    TMP DP  RH WIND       PRES   REMARKS
MARTINSBURG    FAIR      73  52  47 N6        29.94F
PETERSBURG*    FAIR      71  56  58 W3        29.98F

$$

VAZ036>039-050-232000-
CENTRAL FOOTHILLS

CITY           SKY/WX    TMP DP  RH WIND       PRES   REMARKS
CHARLOTTESVILL FAIR      70  53  54 N8        29.96F
CULPEPER*      FAIR      68  58  70 S7        29.96S
ORANGE*        CLOUDY    63  57  82 SW5       29.99R
GORDONSVILLE*  CLOUDY    66  58  77 S10G18    29.95F
WARRENTON*     PTSUNNY   71  51  47 NW3       29.95S

$$

VAZ055>057-232000-
NORTH AND CENTRAL PIEDMONT

CITY           SKY/WX    TMP DP  RH WIND       PRES   REMARKS
FREDERICKSBRG* PTSUNNY   68  57  68 NW8       29.94S
STAFFORD*      PTSUNNY   65  59  80 CALM      29.97F

$$

NCZ024-NYZ072-PAZ021-071-VAZ022-071-232000-
OTHER REGIONAL OBSERVATIONS

CITY           SKY/WX    TMP DP  RH WIND       PRES   REMARKS
NEW YORK CITY  SUNNY     75  51  43 CALM      29.90F
PHILADELPHIA   PTSUNNY   76  52  43 E8        29.88F
PITTSBURGH     MOSUNNY   76  48  37 N9        30.00F
ROANOKE        FAIR      70  49  47 NE8       30.00F
RICHMOND       LGT RAIN  64  55  72 N10       29.96S
RALEIGH        PTSUNNY   66  54  65 VRB5      29.98S

$$

ANZ530>537-232000-
MARINE OBSERVATIONS

STATION/POSITION TIME  TEMP    WIND        PRES
                       AIR SEA DIR/SP/G
                 (UTC) (F)     (DEG/KT/KT) (MB)
THOMAS PT LIGHT  1900   62 61  200/  8/  8 1014.1F
BALT KEY BRIDGE  1800          120/  6/  7 1012.8F
COVE POINT       1800           20/  3/  5 1014.1F
LEWISETTA        1800      63  360/  7/ 12 1013.4R
SOLOMONS ISLAND  1800      62  330/  4/  8   N/A
PINEY POINT      1800          350/  7/  8   N/A

$$





USA.gov is the U.S. government's official web portal to all federal, state and local government web resources and services.